Regional Weather Roundup
Issued by NWS

Home | Current Version | Previous Version | Graphics & Text | Print | Product List | Glossary On
Versions: 1 2 3 4 5 6 7 8 9 10 11 12 13 14 15 16 17 18 19 20 21 22 23 24 25 26 27 28 29 30 31 32 33 34 35 36 37 38 39 40 41 42 43 44 45 46 47 48 49 50
000
ASUS43 KLOT 250709
RWRIL

ILLINOIS REGIONAL WEATHER ROUNDUP
NATIONAL WEATHER SERVICE CHICAGO/ROMEOVILLE IL
100 AM CST SUN FEB 25 2018

NOTE: "FAIR" INDICATES FEW OR NO CLOUDS BELOW 12,000 FEET WITH NO
SIGNIFICANT WEATHER AND/OR OBSTRUCTIONS TO VISIBILITY.

* THESE STATIONS ARE NOT UNDER NWS QUALITY CONTROL. THEY ALSO MAY NOT
  REPORT WEATHER SUCH AS PRECIPITATION OR FOG.

ILZ001-002-007-009-015-016-024-250800-
NORTHWEST ILLINOIS

CITY           SKY/WX    TMP DP  RH WIND       PRES   REMARKS
MOLINE         CLOUDY    34  28  79 W29G48    29.69R WCI  20
STERLING*      CLOUDY    34  30  85 W31G37    29.63R WCI  20
SAVANNA*       CLOUDY    33  28  82 W17G25    29.65R WCI  22
$$

ILZ003-004-008-010-011-017-018-250800-
NORTH CENTRAL ILLINOIS

CITY           SKY/WX    TMP DP  RH WIND       PRES   REMARKS
ROCKFORD       CLOUDY    35  32  88 W25G36    29.58R WCI  23
FREEPORT*      CLOUDY    33  30  90 W28G38    29.60R WCI  19
ROCHELLE*      CLOUDY    34  32  92 W29G37    29.61R WCI  21
DE KALB*       CLOUDY    37  35  92 W32G40    29.57R WCI  23
PERU*          CLOUDY    35  31  87 W26G38    29.67R WCI  22
$$

ILZ005-006-012>014-019>023-250800-
NORTHEAST ILLINOIS

CITY           SKY/WX    TMP DP  RH WIND       PRES   REMARKS
CHICAGO-OHARE  CLOUDY    46  42  86 W24G35    29.49R
CHICAGO-MIDWAY LGT RAIN  48  45  89 W18G26    29.50R
AURORA         CLOUDY    39  36  89 W30G45    29.56R WCI  27
LANSING*       CLOUDY    48  47  97 W21G35    29.52R
JOLIET*        CLOUDY    43  41  93 W17G32    29.58R
WAUKEGAN       CLOUDY    45  44  97 W9        29.44S FOG
DUPAGE AIRPORT CLOUDY    41  40  96 W25G35    29.54R
KANKAKEE*      CLOUDY    44  43  97 W33G41    29.62R
WHEELING       CLOUDY    48  45  89 W16G25    29.48R
MORRIS*        CLOUDY    40  37  87 W31G43    29.59R
ROMEOVILLE*    CLOUDY    42  40  92 W32       29.56R
NORTHERLY ISL    N/A     48  45  89 W17         N/A
$$

LMZ740>746-250800-
SOUTHERN LAKE MICHIGAN

STATION/POSITION SKY/WX   TEMP    WIND        PRES    VSBY  WAVE
                          AIR SEA DIR/SP/G                  HT/PER
                          (F)     (DEG/KT/KT) (MB)    (MI)  (FT/S)
HARRISON CRIB              49     250/ 30/ 36   N/A
BURNHAM HARBOR             47     240/ 12/ 23   N/A
CALUMET HARBOR                    240/ 13/ 18  998.3R
BURNS HARBOR               49     180/ 15/ 23  998.6R
MICHIGAN CITY              48     160/ 15/ 21   N/A
$$

ILZ025>027-034>036-040-047-049-050-058-095>099-250800-
WEST-CENTRAL ILLINOIS

CITY           SKY/WX    TMP DP  RH WIND       PRES   REMARKS
QUINCY         PTCLDY    33  28  81 W18G24    29.84R WCI  22
GALESBURG*     CLOUDY    34  31  90 W18       29.76R WCI  23
MACOMB*        CLOUDY   N/A N/A N/A W26G32    29.80R
JACKSONVILLE*  CLOUDY    35  30  81 W25G33    29.83R WCI  23
PITTSFIELD*    CLOUDY    35  29  78 W22G35    29.87R WCI  24
$$

ILZ028>032-037-038-041>044-048-051>054-059>061-250800-
CENTRAL ILLINOIS

CITY           SKY/WX    TMP DP  RH WIND       PRES   REMARKS
PONTIAC        CLOUDY    40  39  95 W36G49    29.67R
BLOOMINGTON    CLOUDY    39  34  82 W28G37    29.70R WCI  28
DECATUR        MOCLDY    42  35  76 W21G37    29.76R
PEORIA         CLOUDY    36  31  82 W20G36    29.74R WCI  25
LACON*         CLOUDY    36  32  87 W15G29    29.70R WCI  26
LINCOLN*       CLOUDY    40  36  86 W12G24    29.77R
SPRINGFIELD    CLOUDY    39  32  76 W31G46    29.80R WCI  27
TAYLORVILLE    CLOUDY    40  36  83 W25G33    29.81R
$$

ILZ033-039-045-046-055>057-062-063-250800-
EAST-CENTRAL ILLINOIS

CITY           SKY/WX    TMP DP  RH WIND       PRES   REMARKS
CHAMPAIGN      CLOUDY    44  38  79 W32G46    29.71R
DANVILLE*      CLOUDY    47  42  81 W37G45    29.64R
RANTOUL*       CLOUDY    46  42  87 W24G35    29.69R
MATTOON        CLOUDY    45  39  79 W21G31    29.76R
PARIS*         CLOUDY    47  42  83 W37G44    29.74R
$$

ILZ079-100>102-250800-
SOUTHWEST ILLINOIS

CITY           SKY/WX    TMP DP  RH WIND       PRES   REMARKS
ALTON          CLOUDY    39  35  87 W25G35    29.88R WCI  27
BELLEVILLE     CLOUDY    45  36  70 W21       29.88R
CAHOKIA*       CLOUDY    43  33  68 W21G33    29.90R
SPARTA*        MOCLDY    44  37  75 W15G31    29.90R
$$

ILZ064>066-069>071-074>076-080>082-084>086-088>090-092>094-250800-
SOUTH-CENTRAL ILLINOIS

CITY           SKY/WX    TMP DP  RH WIND       PRES   REMARKS
CARBONDALE     NOT AVBL
CAIRO*         FAIR      53  44  72 W20G26    29.89R
EFFINGHAM*     MOCLDY    46  39  76 SW29G36   29.82R
MARION         FAIR      49  38  67 NW12G25   29.89R
MT. VERNON     FAIR      47  37  68 W17G29    29.86R
CENTRALIA*     CLOUDY    47  40  76 W22G31    29.85R
SALEM*         CLOUDY    47  40  75 W24G37    29.84R
METROPOLIS*    FAIR      60  51  73 W20G28    29.85R
$$

ILZ067-068-072-073-078-083-087-091-250800-
SOUTHEAST ILLINOIS

CITY           SKY/WX    TMP DP  RH WIND       PRES   REMARKS
LAWRENCEVILLE  CLOUDY    55  49  80 W29G39    29.76R
FLORA*         CLOUDY    49  43  80 W25G38    29.83R
FAIRFIELD*     CLOUDY    49  41  72 MISG      29.82R
HARRISBURG*    CLOUDY    52  46  79 NW26G46   29.84R
ROBINSON*      CLOUDY    50  47  87 W24G41    29.77R
CARMI*         CLOUDY    53  47  82 W29G37    29.81R
$$

ABBREVIATIONS USED IN REMARKS
   TC - TEMPERATURE IN CELSIUS
  WCI - WIND CHILL INDEX
   HX - HEAT INDEX
  VSB - VISIBILITY
$$





USA.gov is the U.S. government's official web portal to all federal, state and local government web resources and services.